World > North America > United States > Texas > Somerset  

Somerset, TX Hourly Weather Updates

Feedback E-mail the Weather

Quick Clicks

Somerset, TX Weather Maps

°F °C°F °C
Somerset Weather Map
UTC Time: 7/25/2024, 19:48
Your Time:

Somerset, TX Regional Weather

Expires:202407252000;;285480
ASUS44 KSJT 251910
RWRSJT
WEST CENTRAL TEXAS REGIONAL WEATHER ROUNDUP
NATIONAL WEATHER SERVICE SAN ANGELO TX
200 PM CDT THU JUL 25 2024

NOTE: "FAIR" INDICATES FEW OR NO CLOUDS BELOW 12,000 FEET WITH NO
SIGNIFICANT WEATHER AND/OR OBSTRUCTIONS TO VISIBILITY.


TXZ145-158-159-173-191-192-194-205-207-220-223-252000-
CENTRAL AND SOUTH CENTRAL TEXAS
  
CITY           SKY/WX    TMP DP  RH WIND       PRES   REMARKS
AUSTIN/BERGSTM PTSUNNY   83  75  77 E9        30.09F TC  28           
WACO           PTSUNNY   82  75  79 S12       30.12S TC  28           
HILLSBORO      DRIZZLE   81  73  75 CALM      30.12F TC  27           
TEMPLE         MOSUNNY   84  72  67 E12G17    30.13F TC  29           
KILLEEN-GRAY   PTSUNNY   84  72  65 E14       30.11F TC  29           
FORT HOOD      MOSUNNY   86  73  66 E14       30.10F TC  30           
GEORGETOWN     PTSUNNY   83  69  62 E8        30.13F TC  28           
LAGO VISTA     PTSUNNY   83  72  68 E10       30.15F TC  28           
SAN MARCOS     PTSUNNY   86  75  69 E10       30.09F TC  30           
NEW BRAUNFELS  MOSUNNY   88  75  66 VRB7      30.07F TC  31           
RANDOLPH AFB   MOSUNNY   89  70  53 NE10      30.04F TC  31           
SAN ANTONIO    PTSUNNY   88  73  61 E8        30.08F TC  31           
STINSON        MOSUNNY   91  71  51 NE7       30.05F TC  33           
PLEASANTON     NOT AVBL                                               
LA GRANGE      CLOUDY    77  75  94 SE6       30.09F TC  25           
GIDDINGS       LGT RAIN  75  73  91 SE6       30.14F TC  24           
$$


SKY/WX - Weather  TMP - Temperature  DP - Dew Point  RH - Humidity
WIND - Wind Direction/Speed PRES - Barometric Pressure VSB - Visibility
WCI - Wind Chill Index E13G22 Wind - East Wind 13 mph/Gusts of 22 mph

Trending Headlines

Trending Entertainment Headlines

Somerset Radar Loop

Use the map search tool if you want to place a location marker on the radar map...

Somerset Quick Facts

National Two Day Weather Forecast


E-mail the Somerset Weather Forecast

Voice your opinion or tell us about page issues...